Flag for Slovakia Weather past 2 weeks in Prešov, Slovakia

Now
70 °F

Clear.


Feels Like: 70 °F
Forecast: 62 / 94 °F
Wind: 8 mph from Northeast

Location: Kosice - Barca

Current Time: Aug 30, 2015 at 4:34:01 AM

Latest Report: Aug 30, 2015 at 4:00 AM


Visibility: 10 mi

Pressure: 30.21 "Hg

Humidity: 78%

Dew point: 63 °F

Location of PrešovLocation

Historic Weather in Prešov — Graph

°F

Prešov temperature yesterday

Maximum temperature yesterday: 91 °F (at 2:00 PM)
Minimum temperature yesterday: 64 °F (at 6:00 AM)
Average temperature yesterday: 78 °F

Past Weeks' High & Low Weather Summary

 TemperatureHumidityPressure
High93 °F (Aug 15, 3:00 PM)100% (Aug 18, 2:00 AM)30.24 "Hg (Aug 18, 2:00 AM)
Low52 °F (Aug 21, 4:00 AM)28% (Aug 15, 3:00 PM)29.74 "Hg (Aug 17, 6:00 AM)
Average70 °F62%30.03 "Hg
* Reported Aug 15 3:00 AM — Aug 30 3:30 AM, Prešov, Weather by CustomWeather, © 2015

Note: Actual official high and low records may vary slightly from our data, if they occured in-between our weather recording intervals... More about our weather records

Advertising

Prešov weather history for previous 24 hours

 ConditionsComfort  
Time TempWeatherWind HumidityBarometerVisibility
3:30 AM
Sun, Aug 30
70 °FClear.8 mph78%30.21 "Hg10 mi
3:00 AM72 °FClear.8 mph73%30.21 "Hg10 mi
2:30 AM72 °FClear.9 mph73%30.21 "Hg10 mi
2:00 AM72 °FClear.10 mph73%30.21 "Hg10 mi
1:30 AM72 °FClear.10 mph78%30.21 "Hg10 mi
1:00 AM73 °FClear.10 mph74%30.24 "Hg10 mi
12:30 AM73 °FClear.10 mph74%30.24 "Hg10 mi
12:00 AM73 °FClear.12 mph74%30.21 "Hg10 mi
11:30 PM
Sat, Aug 29
75 °FClear.12 mph69%30.21 "Hg10 mi
11:00 PM75 °FClear.12 mph69%30.21 "Hg10 mi
10:30 PM77 °FClear.13 mph65%30.21 "Hg10 mi
10:00 PM77 °FClear.13 mph65%30.21 "Hg10 mi
9:30 PM79 °FClear.13 mph61%30.21 "Hg10 mi
9:00 PM77 °FClear.9 mph65%30.21 "Hg10 mi
8:30 PM81 °FClear.10 mph58%30.21 "Hg10 mi
8:00 PM81 °FSunny.9 mph58%30.18 "Hg10 mi
7:30 PM81 °FPassing clouds.3 mph58%30.18 "HgN/A
7:00 PM82 °FSunny.1 mph55%30.18 "Hg10 mi
6:30 PM84 °FPassing clouds.6 mph51%30.18 "HgN/A
6:00 PM84 °FSunny.9 mph51%30.18 "Hg10 mi
5:30 PM86 °FScattered clouds.10 mph49%30.18 "HgN/A
5:00 PM90 °FSunny.5 mph38%30.18 "Hg10 mi
4:30 PM90 °FSunny.2 mph38%30.18 "Hg10 mi
4:00 PM90 °FSunny.6 mph36%30.18 "Hg10 mi
3:30 PM90 °FPassing clouds.3 mph36%30.18 "HgN/A
3:00 PM91 °FSunny.3 mph34%30.18 "Hg10 mi
2:30 PM91 °FPassing clouds.6 mph34%30.18 "HgN/A
2:00 PM91 °FPassing clouds.5 mph34%30.18 "HgN/A
1:30 PM90 °FSunny.5 mph36%30.21 "Hg10 mi
1:00 PM90 °FSunny.3 mph36%30.21 "Hg10 mi
12:00 PM88 °FSunny.2 mph40%30.21 "Hg10 mi
11:30 AM86 °FSunny.2 mph43%30.21 "Hg10 mi
11:00 AM86 °FSunny.2 mph43%30.21 "Hg10 mi
10:00 AM82 °FPassing clouds.5 mph48%30.21 "HgN/A
9:30 AM81 °FPassing clouds.6 mph51%30.21 "HgN/A
9:00 AM77 °FPassing clouds.6 mph57%30.21 "HgN/A
8:00 AM72 °FSunny.1 mph69%30.21 "Hg10 mi
7:30 AM70 °FSunny.1 mph73%30.18 "Hg10 mi
7:00 AM66 °FSunny.1 mph78%30.18 "Hg10 mi
6:30 AM64 °FClear.1 mph78%30.18 "Hg10 mi
6:00 AM64 °FClear.1 mph83%30.18 "Hg10 mi
5:00 AM68 °FClear.3 mph73%30.15 "Hg10 mi
4:30 AM68 °FClear.1 mph73%30.15 "Hg10 mi
4:00 AM68 °FClear.2 mph73%30.15 "Hg10 mi
Weather by CustomWeather, © 2015

See weather overviewHow to use our weather pages